Peru, IL

3:32 PM CDT on April 26, 2018 (GMT -0500)
Illinois Valley Regional-Duncan

Weather History for KVYS - February, 2014

Change the Weather History Date:

Sunday, February 16, 2014

  Actual Average Record
Temperature  
Mean Temperature 20 °F -  
Max Temperature 23 °F 34 °F 65 °F (1976)
Min Temperature 16 °F 16 °F -5 °F (2007)
Degree Days  
Heating Degree Days 46    
Moisture  
Dew Point 15 °F    
Average Humidity 81    
Maximum Humidity 89    
Minimum Humidity 68    
Precipitation  
Precipitation 0.01 in - - ()
Sea Level Pressure  
Sea Level Pressure 30.14 in    
Wind  
Wind Speed 6 mph (NW)    
Max Wind Speed 16 mph    
Max Gust Speed 17 mph    
Visibility 8 miles    
Events      
Averages and records for this station are not official NWS values.
T = Trace of Precipitation, MM = Missing Value Source: NWS Daily Summary

Daily Weather History Graph

Daily Weather History Graph

Search for Another Location

Airport or City:

Astronomy

Feb. 16, 2014 Rise Set
Actual Time 6:50 AM CST 5:31 PM CST
Civil Twilight 6:21 AM CST 6:00 PM CST
Nautical Twilight 5:49 AM CST 6:32 PM CST
Astronomical Twilight 5:17 AM CST 7:04 PM CST
Moon 7:30 PM CST (2/16) 7:18 AM CST (2/16)
Length of Visible Light 11h 38m
Length of Day
10h 41m
Full, 97% of the Moon is Illuminated
Feb 16
Full
Feb 22
Last Quarter
Mar 1
New
Mar 8
First Quarter
Mar 16
Full

Hourly Weather History & Observations

Time (CST) Temp. Windchill Dew Point Humidity Pressure Visibility Wind Dir Wind Speed Gust Speed Precip Events Conditions
12:15 AM 19.4 °F - 16.7 °F 89% 29.94 in 7.0 mi Calm Calm - 0.01 in   Overcast
12:35 AM 19.6 °F - 16.5 °F 88% 29.94 in 7.0 mi Calm Calm - 0.01 in   Overcast
12:55 AM 19.8 °F - 16.5 °F 87% 29.94 in 7.0 mi Calm Calm - 0.01 in   Overcast
1:15 AM 19.4 °F 12.8 °F 16.3 °F 88% 29.95 in 7.0 mi West 4.6 mph - N/A   Overcast
1:35 AM 19.6 °F 13.0 °F 16.5 °F 88% 29.95 in 7.0 mi West 4.6 mph - N/A   Overcast
1:55 AM 19.2 °F 12.5 °F 15.8 °F 87% 29.95 in 7.0 mi WNW 4.6 mph - N/A   Overcast
2:15 AM 17.4 °F 9.1 °F 14.2 °F 87% 29.95 in 7.0 mi WNW 5.8 mph - N/A   Overcast
2:35 AM 18.1 °F 11.3 °F 15.4 °F 89% 29.94 in 7.0 mi WNW 4.6 mph - N/A   Overcast
2:55 AM 17.6 °F 10.7 °F 14.9 °F 89% 29.96 in 7.0 mi WNW 4.6 mph - N/A   Overcast
3:15 AM 18.5 °F 9.3 °F 15.8 °F 89% 29.97 in 7.0 mi West 6.9 mph - N/A   Overcast
3:35 AM 18.9 °F 8.8 °F 15.8 °F 88% 29.98 in 7.0 mi WNW 8.1 mph - N/A   Overcast
3:55 AM 19.2 °F 8.4 °F 16.2 °F 88% 29.98 in 7.0 mi NW 9.2 mph - N/A   Overcast
4:15 AM 19.4 °F 6.6 °F 16.3 °F 88% 29.98 in 7.0 mi NW 12.7 mph - N/A   Overcast
4:35 AM 19.8 °F 8.3 °F 16.2 °F 86% 30.00 in 7.0 mi NW 10.4 mph - N/A   Overcast
4:55 AM 19.4 °F 7.2 °F 15.8 °F 86% 30.02 in 7.0 mi NW 11.5 mph - N/A   Overcast
5:15 AM 19.4 °F 7.9 °F 15.8 °F 86% 30.03 in 7.0 mi NW 10.4 mph - N/A   Overcast
5:55 AM 19.4 °F 7.2 °F 15.8 °F 86% 30.05 in 7.0 mi NW 11.5 mph - N/A   Overcast
6:35 AM 18.3 °F 6.6 °F 14.9 °F 86% 30.08 in 7.0 mi NW 10.4 mph - N/A   Overcast
6:55 AM 18.3 °F 5.9 °F 14.7 °F 86% 30.09 in 5.0 mi NW 11.5 mph - N/A   Overcast
7:15 AM 16.5 °F 3.6 °F 12.9 °F 86% 30.11 in 5.0 mi NW 11.5 mph - N/A   Mostly Cloudy
7:35 AM 16.7 °F 2.0 °F 13.1 °F 86% 30.11 in 5.0 mi NW 15.0 mph - N/A   Mostly Cloudy
7:55 AM 16.3 °F 1.6 °F 12.6 °F 85% 30.13 in 5.0 mi NW 15.0 mph - N/A   Scattered Clouds
8:15 AM 17.2 °F 3.3 °F 12.9 °F 83% 30.14 in 5.0 mi NW 13.8 mph - N/A   Clear
8:35 AM 16.7 °F 3.2 °F 12.6 °F 84% 30.15 in 7.0 mi NW 12.7 mph - N/A   Clear
8:55 AM 17.1 °F 2.5 °F 12.7 °F 83% 30.15 in 5.0 mi NW 15.0 mph - N/A   Clear
9:15 AM 17.6 °F 2.7 °F 13.1 °F 83% 30.15 in 5.0 mi NW 16.1 mph - N/A   Haze
9:35 AM 18.3 °F 5.2 °F 13.5 °F 81% 30.16 in 7.0 mi NW 12.7 mph - N/A   Clear
9:55 AM 19.4 °F 7.2 °F 14.2 °F 80% 30.18 in 7.0 mi NW 11.5 mph - N/A   Clear
10:15 AM 19.9 °F 7.3 °F 14.4 °F 79% 30.19 in 7.0 mi NW 12.7 mph 17.3 mph N/A   Clear
10:35 AM 20.8 °F 7.3 °F 14.9 °F 78% 30.19 in 7.0 mi NNW 15.0 mph - N/A   Clear
10:55 AM 21.0 °F 8.1 °F 14.9 °F 77% 30.20 in 7.0 mi NNW 13.8 mph - N/A   Clear
11:15 AM 21.4 °F 10.4 °F 14.9 °F 76% 30.19 in 7.0 mi North 10.4 mph - N/A   Clear
11:35 AM 22.1 °F 10.0 °F 14.9 °F 74% 30.20 in 10.0 mi North 12.7 mph - N/A   Clear
11:55 AM 22.1 °F 12.0 °F 14.5 °F 73% 30.19 in 10.0 mi North 9.2 mph - N/A   Clear
12:15 PM 23.0 °F 12.4 °F 15.3 °F 72% 30.20 in 10.0 mi NNW 10.4 mph - N/A   Clear
12:35 PM 23.4 °F 14.3 °F 14.9 °F 70% 30.20 in 10.0 mi NNW 8.1 mph - N/A   Clear
12:55 PM 22.6 °F 13.4 °F 14.9 °F 72% 30.19 in 10.0 mi NNW 8.1 mph - N/A   Clear
1:15 PM 22.5 °F 14.1 °F 14.9 °F 73% 30.20 in 10.0 mi NW 6.9 mph - N/A   Clear
1:35 PM 23.4 °F 15.2 °F 14.7 °F 70% 30.20 in 10.0 mi NNW 6.9 mph - N/A   Clear
1:55 PM 23.9 °F 15.8 °F 14.7 °F 68% 30.21 in 10.0 mi NNW 6.9 mph - N/A   Clear
2:15 PM 23.9 °F 15.8 °F 15.3 °F 70% 30.21 in 5.0 mi NNW 6.9 mph - N/A   Haze
2:55 PM 23.4 °F 17.4 °F 15.8 °F 73% 30.21 in 10.0 mi NW 4.6 mph - N/A   Clear
3:35 PM 23.5 °F 19.1 °F 15.1 °F 70% 30.23 in 10.0 mi NW 3.5 mph - N/A   Clear
3:55 PM 23.5 °F - 14.9 °F 70% 30.23 in 10.0 mi Calm Calm - N/A   Clear
4:15 PM 22.6 °F - 15.1 °F 73% 30.24 in 10.0 mi Calm Calm - N/A   Clear
4:35 PM 21.4 °F - 14.4 °F 74% 30.24 in 10.0 mi Calm Calm - N/A   Clear
4:55 PM 21.7 °F - 14.4 °F 73% 30.24 in 10.0 mi Calm Calm - N/A   Clear
5:15 PM 20.3 °F - 14.0 °F 77% 30.24 in 10.0 mi Calm Calm - N/A   Clear
5:35 PM 19.4 °F - 14.4 °F 81% 30.25 in 10.0 mi Calm Calm - N/A   Clear
5:55 PM 18.1 °F - 13.8 °F 83% 30.24 in 10.0 mi Calm Calm - N/A   Clear
6:15 PM 17.4 °F - 13.8 °F 86% 30.25 in 10.0 mi Calm Calm - N/A   Clear
6:35 PM 16.9 °F - 12.9 °F 84% 30.25 in 10.0 mi Calm Calm - N/A   Clear
6:55 PM 16.0 °F - 12.7 °F 87% 30.25 in 7.0 mi Calm Calm - N/A   Clear
7:15 PM 18.1 °F - 14.0 °F 84% 30.25 in 10.0 mi Calm Calm - N/A   Clear
7:35 PM 18.1 °F - 14.0 °F 84% 30.25 in 7.0 mi Calm Calm - N/A   Clear
7:55 PM 19.4 °F - 14.4 °F 81% 30.24 in 10.0 mi Calm Calm - N/A   Clear
8:15 PM 19.8 °F 13.2 °F 14.4 °F 80% 30.24 in 10.0 mi East 4.6 mph - N/A   Clear
8:35 PM 20.1 °F - 14.5 °F 79% 30.25 in 10.0 mi Calm Calm - N/A   Clear
8:55 PM 20.3 °F 13.8 °F 14.7 °F 79% 30.26 in 10.0 mi SE 4.6 mph - N/A   Scattered Clouds
9:15 PM 21.0 °F 12.4 °F 14.9 °F 77% 30.24 in 10.0 mi ESE 6.9 mph - N/A   Scattered Clouds
9:55 PM 21.0 °F 13.4 °F 15.3 °F 78% 30.23 in 10.0 mi ESE 5.8 mph - N/A   Overcast
10:35 PM 21.2 °F 12.6 °F 14.9 °F 77% 30.24 in 10.0 mi ESE 6.9 mph - N/A   Overcast
11:15 PM 21.2 °F 10.9 °F 14.9 °F 77% 30.23 in 10.0 mi SE 9.2 mph - N/A   Overcast
11:35 PM 21.9 °F 11.0 °F 15.8 °F 77% 30.23 in 10.0 mi SE 10.4 mph - N/A   Overcast
11:55 PM 21.9 °F 11.0 °F 15.6 °F 77% 30.23 in 10.0 mi SE 10.4 mph - N/A   Scattered Clouds